Simultaneous Nadir Overpasses (SNOs) Predictions

Prediction of SNOs between GOES-15 and LANDSAT-8 Satellite Orbit:

Table of predicted SNOs for the next 14.0 days since TLE Epoch: 6/24/2023
Index Date Time (GOES-15) GOES-15 Lat,Lon LANDSAT-8 Lat,Lon Distance(km) Time Diff (sec)
1 06/25/2023 21:10:39 -0.17,-165.37 -0.23,-165.06 34.48 80
2 06/27/2023 20:58:33 -0.18,-166.13 -1.06,-162.16 452.99 80
3 06/28/2023 09:22:36 0.14,-166.32 -0.09,-167.34 116.69 80
4 06/30/2023 09:07:50 0.16,-167.07 0.71,-164.42 300.59 80
5 06/30/2023 21:31:45 -0.12,-167.28 0.38,-169.58 262.30 80
6 07/02/2023 21:16:58 -0.14,-168.01 -0.44,-166.66 153.67 80
7 07/03/2023 09:41:02 0.10,-168.19 -0.70,-171.85 416.39 80
8 07/05/2023 09:28:54 0.11,-168.92 0.09,-168.93 2.52 80
9 07/07/2023 09:14:06 0.14,-169.65 0.90,-166.01 413.65 80
10 07/07/2023 21:38:02 -0.09,-169.85 0.18,-171.17 149.71 80
